Погода Гродно

Погода Гродно : погода сейчас, прогноз погоды и архив. Всё, что Вы хотите узнать о погоде Гродно!

Поиск расширенной информации на нашем сайте:

Полезная информация: Подробности Urban Decay у нас на сайте.

Другие новости

Новости СМИ2

Главная страница сайта

Новости сайта

02.10.2013

Напоминаем, что на нашем новом сайте вы можете получить высокодетализированные прогнозы погоды по пунктам России, СНГ и мира (включающие важные для авиации метеовеличины, такие как направление и скорость ветра, видимость, явления погоды, количество и форма облачности, нижняя и верхняя граница облачности), а также ознакомиться с разнообразными материалами по авиационной метеорологии и подборкой полезных ссылок на эту тему.

Сайт Метеоцентр.Азия посвящён разработке технологий оптимизации авиаметеорологического обслуживания, включая проектирование и перспективное создание нескольких автоматизированных авиаметеорологических систем:
- система выпуска высокодетальных прогностических карт явлений погоды для нижнего воздушного пространства по России и ближнему зарубежью;
- система верификации прогнозов TAF (выпускаемых синоптиками официальных АМСГ РФ и ближнего зарубежья) и AUTOTAF (выпускаемых сайтом Метеоцентр.Азия) - выявление ошибок, онлайн-сопоставление с фактической погодой METAR, автоматическое внесение коррективов в прогнозы при резком отклонении фактической погоды от прогноза, подсчёт оправдываемости прогнозов по элементам и в целом;
- система обработки, анализа и отображения авиаметеорологической информации для применения провайдерами метеорологической информации.

Рекомендуем: Грунтноцементные сваи усиление грунтов.

Погода Гродно - сегодня

Время (UTC), дата Ветер
(°,м/с) 
Видим.   Явления Облачность Т
(°С)
Тd
(°С)
f(%) Тe
(°С)
Pmin
(гПа)
dP
(гПа)
Po
(мм)
O2
(г/м3)
Тmin Tmax R s Состояние
почвы
03 21.01.17 280 (З) 4300 м  слаб. морось  10/10 120 м 
[St]
+1.7 +0.9 94 1024  -0.7  754  302      0.0   
06 21.01.17 290 (З) 2400 м  дымка{морось}  10/10 60 м 
[St]
+1.6 +1.1 96 -1  1024.8  0.8  755  302  +0.7    0.0  равномерный
мокрый или
старый снег
100% 
09 21.01.17 300 (СЗ) 4500 м  дымка  10/10 100 м 
[St]
+1.7 +0.9 94 -1  1026.6  1.7  756  303           
12 21.01.17 300 (СЗ) 8000 м  дымка  10/10 120 м 
[St]
+1.8 +0.7 92 -1  1027.2  0.6  756  303           
15 21.01.17 290 (З) 9000 м  дымка  9/8 180 м средняя 
[St|Ac trans]
+1.8 +0.7 92 1028.4  1.2  757  303           
18 21.01.17 300 (СЗ) 9000 м  дымка  9/8 150 м средняя 
[St|Ac trans]
+1.1 +0.3 94 -1  1030.2  1.8  759  304    +2     
21 21.01.17 290 (З) 5000 м  дымка  10/10 100 м 
[St]
+0.9 +0.4 96 -1  1031.8  1.5  760  305           
00 22.01.17 280 (З) 3700 м  дымка  10/10 100 м 
[St]
+0.7 +0.1 96 -1  1032.6  0.8  760  306           
03 22.01.17 260 (З) 3800 м  дымка  10/10 60 м 
[St]
+0.3 -0.3 96 -1  1032.7  760  306         
06 22.01.17 260 (З) 2500 м  дымка  10/10 60 м 
[St]
-0.3 -0.9 96 -3  1031.9  -0.8  761  306  -0.5      равномерный
мокрый или
старый снег
100% 
09 22.01.17 240 (ЮЗ) 3200 м  дымка  10/10 60 м 
[St]
-0.6 -1.5 94 -2  1032.5  0.6  760  307           
12 22.01.17 250 (З) 4500 м  дымка  10/10 100 м 
[St]
-0.5 -2 90 -2  1032.1  -0.4  760  307           
15 22.01.17 260 (З) 5000 м  дымка  10/10 100 м 
[St]
-0.6 -1.8 92 -2  1031.1  -0.9  759  307           
18 22.01.17 230 (ЮЗ) 4800 м  дымка  10/10 60 м 
[St]
-1 -1.9 94 -3  1030.7  -0.4  759  307    -0.3     
21 22.01.17 230 (ЮЗ) 4200 м  дымка  10/10 100 м 
[St]
-1.3 -2.2 94 -3  1029.7  -1  758  307           
00 23.01.17 230 (ЮЗ) 5000 м  дымка  10/10 120 м 
[St]
-1.5 -2.4 94 -2  1028.8  -1  757  307           
03 23.01.17 240 (ЮЗ) 4500 м  дымка  10/10 100 м 
[St]
-1.5 -2.1 96 -4  1027.3  -1.5  756  307         
06 23.01.17 240 (ЮЗ) 5000 м  дымка  10/10 120 м 
[St]
-1.5 -2.4 94 -4  1025.6  -1.6  755  306  -1.7      равномерный
мокрый или
старый снег
100% 
09 23.01.17 230 (ЮЗ) 5000 м  дымка  10/10 150 м 
[St]
-1.6 -2.8 92 -4  1025  -0.7  755  306           
12 23.01.17 230 (ЮЗ) 5000 м  дымка  10/10 150 м 
[St]
-1.4 -2.6 92 -4  1023.1  -1.7  753  305           
15 23.01.17 230 (ЮЗ) 6000 м  дымка  8/6 180 м средняя 
[St|Ac trans]
-1.7 -2.9 91 -4  1022.1  -1.2  752  305           
18 23.01.17 230 (ЮЗ) 4400 м  дымка  8/8 180 м 
[St]
-1.9 -3.2 91 -4  1020.8  -1.2  751  305    -1.4     
21 23.01.17 230 (ЮЗ) 2200 м  дымка  ясно 
-3.8 -4.6 94 -5  1020.4  -0.5  751  307           
00 24.01.17 260 (З) 2700 м  дымка  10/10 150 м 
[St]
-2.4 -3 96 -4  1019.8  -0.5  751  305           
03 24.01.17 260 (З) 3800 м  дымка  10/10 180 м 
[St]
-1.9 -2.5 96 -4  1019.4  -0.4  750  305         
Время (UTC), дата Ветер
(°,м/с) 
Видим.   Явления Облачность Т
(°С)
Тd
(°С)
f(%) Тe
(°С)
Pmin
(гПа)
dP
(гПа)
Po
(мм)
O2
(г/м3)
Тmin Tmax R s Состояние
почвы

Для получения пояснительной информации подведите курсор к названию столбца.

ПОГОДА Гродно - архив

Всё, что Вы хотите узнать о погоде Гродно - удобно и подробно!

Выберите нужную дату (начиная с 1 января 2015* года) и нажмите кнопку "Найти".
Будут отображены архивные сводки погоды по пункту Гродно, начиная с указанной даты.


Отображать данные в формате CSV (для использования в таблицах Excel)


Внимание! Наш архив погоды предназначен исключительно для личного некоммерческого использования в познавательных целях. Если Вам необходимы официальные справки о состоянии погоды (для производственных, юридических, коммерческих и т.п. целей), обращайтесь в органы Росгидромета.

*Примечание: данная дата относится к архиву по метеостанциям СССР (Россия, СНГ, Балтия).
Архив по метеостанциям Зарубежной Европы и Азии (кроме Китая) хранится 10 дней, по другим регионам земного шара (Китай, Африка, Америка, Австралия, Океания) - 1 день.

Гродно - район местоположения метеостанции


Название, широта, долгота, высота метеостанции:
Гродно 53.6°ш. 24.1°д. 134 м над ур. моря [Беларусь]

Дополнительная информация

В oтличие oт бoльшинства пoгoдных сайтoв мы публикуем пoдрoбную метеoинфoрмацию в детальнoм прoфессиoнальнoм фoрмате.

Характеристики температуры и влажнoсти вoздуха измеряются на высoте 2 м в тени вдали oт зданий и деревьев.
Скoрoсть ветра измеряется на высoте 10 м (на урoвне рoста челoвека скoрoсть ветра ниже в 1.5-2 раза). Если метеoстанция нахoдится в гoрoде или в лесу, тo скoрoсть ветра занижена на 2-4 м/с пo сравнению с oткрытым местoм. Скoрoсть ветра над акватoриями крупных рек и oзёр, а также на вершинах хoлмoв на 2-5 м/с выше, чем в oбычных услoвиях.
Атмoсфернoе давление в разных тoчках местнoсти мoжет значительнo oтличаться oт давления на метеoстанции, в зависимoсти oт услoвий рельефа (при пoдъёме на 10 м давление пoнижается примернo на 1 мм рт.ст.).